Track STARLINK-1805 now! 10-day predictions STARLINK-1805 is classified as:
1 46705U 20073AM 22183.42024236 .00000519 00000-0 53785-4 0 9990 2 46705 53.0540 180.2467 0001776 60.0380 300.0785 15.06392588 94000